• In Belarus
  • List of Countries
  • For 7 days
  • Water Temperature
  • Satellite Maps
  • Weather Map
  • Weather Widgets
  • user-avatar
    Login

    Hourly Weather Cape Breton Island

    Today, 19 December, Tuesday

    Time Temperature Precipitation Wind Pressure Humidity
    00:00 -9°C° 0 mm 3 mps 724 mmHg 61%
    01:00 -7°C° 0 mm 2 mps 724 mmHg 63%
    02:00 -7°C° 0 mm 2 mps 724 mmHg 65%
    03:00 -7°C° 0 mm 2 mps 723 mmHg 70%
    04:00 -7°C° 0 mm 2 mps 723 mmHg 76%
    05:00 -7°C° 0 mm 2 mps 723 mmHg 82%
    06:00 -6°C° 0.1 mm 2 mps 722 mmHg 85%
    07:00 -7°C° 0.1 mm 3 mps 722 mmHg 88%
    08:00 -7°C° 0.1 mm 3 mps 722 mmHg 91%
    09:00 -6°C° 0.2 mm 3 mps 721 mmHg 89%
    10:00 -4°C° 0.2 mm 4 mps 721 mmHg 86%
    11:00 -2°C° 0.2 mm 5 mps 721 mmHg 84%
    12:00 -2°C° 0.5 mm 5 mps 720 mmHg 85%
    13:00 -2°C° 0.5 mm 5 mps 719 mmHg 86%
    14:00 -1°C° 0.5 mm 5 mps 718 mmHg 86%
    15:00 -1°C° 0.7 mm 5 mps 718 mmHg 88%
    16:00 -1°C° 0.7 mm 5 mps 717 mmHg 90%
    17:00 -1°C° 0.7 mm 5 mps 717 mmHg 92%
    18:00 -1°C° 1.3 mm 5 mps 716 mmHg 93%
    19:00 0°C° 1.3 mm 5 mps 715 mmHg 93%
    20:00 0°C° 1.3 mm 5 mps 714 mmHg 94%
    21:00 0°C° 1.9 mm 5 mps 713 mmHg 95%
    22:00 0°C° 1.9 mm 5 mps 712 mmHg 95%
    23:00 0°C° 1.9 mm 5 mps 711 mmHg 96%

    Tomorrow, 20 December, Wednesday

    Time Temperature Precipitation Wind Pressure Humidity
    00:00 0°C° 0.9 mm 5 mps 710 mmHg 95%
    01:00 -1°C° 0.9 mm 5 mps 709 mmHg 95%
    02:00 -1°C° 0.9 mm 5 mps 708 mmHg 94%
    03:00 -1°C° 1 mm 5 mps 707 mmHg 94%
    04:00 -1°C° 1 mm 5 mps 706 mmHg 94%
    05:00 -2°C° 1 mm 6 mps 705 mmHg 93%
    06:00 -2°C° 0.3 mm 6 mps 705 mmHg 91%
    07:00 -3°C° 0.3 mm 7 mps 705 mmHg 89%
    08:00 -3°C° 0.3 mm 7 mps 705 mmHg 86%
    09:00 -4°C° 0.1 mm 8 mps 705 mmHg 85%
    10:00 -5°C° 0.1 mm 8 mps 705 mmHg 83%
    11:00 -5°C° 0.1 mm 9 mps 705 mmHg 82%
    12:00 -5°C° 0.5 mm 9 mps 705 mmHg 83%
    13:00 -7°C° 0.5 mm 10 mps 705 mmHg 84%
    14:00 -7°C° 0.5 mm 10 mps 705 mmHg 84%
    15:00 -7°C° 0.3 mm 10 mps 706 mmHg 84%
    16:00 -8°C° 0.3 mm 11 mps 707 mmHg 83%
    17:00 -8°C° 0.3 mm 11 mps 707 mmHg 82%
    18:00 -9°C° 0.2 mm 11 mps 708 mmHg 81%
    19:00 -9°C° 0.2 mm 11 mps 709 mmHg 79%
    20:00 -9°C° 0.2 mm 11 mps 709 mmHg 78%
    21:00 -9°C° 0.1 mm 11 mps 710 mmHg 78%
    22:00 -11°C° 0.1 mm 11 mps 710 mmHg 77%
    23:00 -11°C° 0.1 mm 11 mps 711 mmHg 77%

    Day after tomorrow, 21 December, Thursday

    Time Temperature Precipitation Wind Pressure Humidity
    00:00 -11°C° 0.1 mm 11 mps 711 mmHg 76%
    01:00 -11°C° 0.1 mm 11 mps 712 mmHg 76%
    02:00 -11°C° 0.1 mm 11 mps 712 mmHg 75%
    03:00 -11°C° 0.1 mm 11 mps 713 mmHg 75%
    04:00 -11°C° 0.1 mm 11 mps 713 mmHg 75%
    05:00 -11°C° 0.1 mm 11 mps 714 mmHg 75%
    06:00 -11°C° 0.1 mm 11 mps 715 mmHg 75%
    07:00 -10°C° 0.1 mm 10 mps 716 mmHg 75%
    08:00 -10°C° 0.1 mm 10 mps 717 mmHg 75%
    09:00 -12°C° 0.1 mm 10 mps 717 mmHg 74%
    10:00 -12°C° 0.1 mm 10 mps 718 mmHg 74%
    11:00 -12°C° 0.1 mm 10 mps 719 mmHg 73%
    12:00 -12°C° 0.1 mm 10 mps 719 mmHg 73%
    13:00 -11°C° 0.1 mm 9 mps 720 mmHg 73%
    14:00 -12°C° 0.1 mm 9 mps 720 mmHg 74%
    15:00 -12°C° 0.1 mm 9 mps 721 mmHg 74%
    16:00 -12°C° 0.1 mm 9 mps 722 mmHg 75%
    17:00 -14°C° 0.1 mm 9 mps 723 mmHg 76%
    18:00 -14°C° 0.1 mm 9 mps 724 mmHg 76%
    19:00 -13°C° 0.1 mm 8 mps 724 mmHg 76%
    20:00 -13°C° 0.1 mm 8 mps 725 mmHg 76%
    21:00 -13°C° 0.1 mm 8 mps 726 mmHg 76%
    22:00 -13°C° 0.1 mm 7 mps 726 mmHg 76%
    23:00 -13°C° 0.1 mm 7 mps 727 mmHg 76%

    22 December, Friday

    Time Temperature Precipitation Wind Pressure Humidity
    00:00 -13°C° 0.1 mm 7 mps 727 mmHg 76%
    01:00 -13°C° 0.1 mm 7 mps 728 mmHg 76%
    02:00 -13°C° 0.1 mm 7 mps 728 mmHg 75%
    03:00 -14°C° 0 mm 7 mps 729 mmHg 75%
    04:00 -14°C° 0 mm 7 mps 730 mmHg 75%
    05:00 -14°C° 0 mm 7 mps 731 mmHg 75%
    06:00 -14°C° 0 mm 6 mps 731 mmHg 76%
    07:00 -14°C° 0 mm 6 mps 732 mmHg 76%
    08:00 -14°C° 0 mm 6 mps 733 mmHg 76%
    09:00 -12°C° 0 mm 5 mps 734 mmHg 74%
    10:00 -12°C° 0 mm 5 mps 734 mmHg 72%
    11:00 -11°C° 0 mm 5 mps 735 mmHg 70%
    12:00 -10°C° 0 mm 4 mps 735 mmHg 70%
    13:00 -10°C° 0 mm 4 mps 735 mmHg 69%
    14:00 -9°C° 0 mm 3 mps 736 mmHg 69%
    15:00 -9°C° 0 mm 3 mps 736 mmHg 72%
    16:00 -9°C° 0 mm 2 mps 736 mmHg 75%
    17:00 -9°C° 0 mm 1 mps 737 mmHg 78%
    18:00 -8°C° 0 mm 1 mps 737 mmHg 78%
    19:00 -9°C° 0 mm 2 mps 738 mmHg 77%
    20:00 -9°C° 0 mm 2 mps 738 mmHg 77%
    21:00 -9°C° 0 mm 2 mps 738 mmHg 76%
    22:00 -8°C° 0 mm 2 mps 738 mmHg 75%
    23:00 -9°C° 0 mm 3 mps 738 mmHg 74%

    23 December, Saturday

    Time Temperature Precipitation Wind Pressure Humidity
    00:00 -8°C° 0.1 mm 3 mps 737 mmHg 74%
    01:00 -9°C° 0.1 mm 4 mps 737 mmHg 75%
    02:00 -8°C° 0.1 mm 4 mps 737 mmHg 75%
    03:00 -8°C° 0.5 mm 5 mps 736 mmHg 80%
    04:00 -7°C° 0.5 mm 5 mps 736 mmHg 85%
    05:00 -6°C° 0.5 mm 6 mps 735 mmHg 90%
    06:00 -5°C° 1.2 mm 6 mps 735 mmHg 90%
    07:00 -4°C° 1.2 mm 7 mps 735 mmHg 90%
    08:00 -3°C° 1.2 mm 7 mps 734 mmHg 89%
    09:00 -2°C° 1.7 mm 7 mps 733 mmHg 91%
    10:00 -1°C° 1.7 mm 8 mps 733 mmHg 92%
    11:00 0°C° 1.7 mm 8 mps 732 mmHg 93%
    12:00 0°C° 0.7 mm 8 mps 731 mmHg 93%
    13:00 +1°C° 0.7 mm 9 mps 730 mmHg 93%
    14:00 +2°C° 0.7 mm 9 mps 729 mmHg 93%
    15:00 +2°C° 1.3 mm 9 mps 728 mmHg 93%
    16:00 +3°C° 1.3 mm 9 mps 728 mmHg 93%
    17:00 +3°C° 1.3 mm 9 mps 727 mmHg 94%
    18:00 +5°C° 1.9 mm 10 mps 726 mmHg 93%
    19:00 +5°C° 1.9 mm 10 mps 725 mmHg 93%
    20:00 +6°C° 1.9 mm 11 mps 724 mmHg 92%
    21:00 +6°C° 2.4 mm 10 mps 723 mmHg 92%
    22:00 +7°C° 2.4 mm 10 mps 723 mmHg 92%
    23:00 +7°C° 2.4 mm 10 mps 722 mmHg 91%

    24 December, Sunday

    Time Temperature Precipitation Wind Pressure Humidity
    00:00 +7°C° 0.2 mm 9 mps 722 mmHg 92%
    01:00 +7°C° 0.2 mm 9 mps 721 mmHg 92%
    02:00 +7°C° 0.2 mm 8 mps 721 mmHg 93%
    03:00 +7°C° 0 mm 8 mps 721 mmHg 92%
    04:00 +7°C° 0 mm 8 mps 721 mmHg 90%
    05:00 +7°C° 0 mm 8 mps 721 mmHg 89%
    06:00 +6°C° 0 mm 9 mps 722 mmHg 86%
    07:00 +3°C° 0 mm 9 mps 723 mmHg 82%
    08:00 +2°C° 0 mm 9 mps 725 mmHg 79%
    09:00 +1°C° 0 mm 9 mps 725 mmHg 73%
    10:00 0°C° 0 mm 8 mps 726 mmHg 67%
    11:00 -1°C° 0 mm 8 mps 727 mmHg 61%
    12:00 -1°C° 0 mm 8 mps 728 mmHg 60%
    13:00 -2°C° 0 mm 8 mps 728 mmHg 59%
    14:00 -2°C° 0 mm 8 mps 729 mmHg 58%
    15:00 -3°C° 0 mm 7 mps 729 mmHg 60%
    16:00 -3°C° 0 mm 7 mps 730 mmHg 62%
    17:00 -4°C° 0 mm 7 mps 731 mmHg 63%
    18:00 -4°C° 0 mm 7 mps 732 mmHg 64%
    19:00 -4°C° 0 mm 7 mps 732 mmHg 65%
    20:00 -6°C° 0 mm 7 mps 733 mmHg 66%
    21:00 -6°C° 0 mm 7 mps 734 mmHg 66%
    22:00 -6°C° 0 mm 7 mps 734 mmHg 66%
    23:00 -7°C° 0 mm 7 mps 735 mmHg 66%
    Show more